Location: Unspecified
(0.0000°N, 0.0000°E)
Time: 04:50:48
(UTC+02:00)

CZ-4B DEB - Visible Passes

Search period start: 06 July 2015 00:00
Search period end: 16 July 2015 00:00
Orbit: 478 x 489 km, 97.5° (Epoch: 05 July)

Date Brightness Start Highest point End Pass type
(mag) Time Alt. Az. Time Alt. Az. Time Alt. Az.
06 Jul 3.3 20:40:00 10° SSE 20:43:25 47° E 20:46:50 10° N visible
07 Jul 6.2 21:50:59 10° WSW 21:51:57 11° W 21:52:39 10° W visible
08 Jul 5.1 21:24:00 10° SSW 21:27:04 27° W 21:30:04 10° NW visible
09 Jul 3.1 20:58:39 10° S 21:02:12 76° WSW 21:05:44 10° NNW visible
10 Jul 3.7 20:34:01 10° SSE 20:37:18 36° E 20:40:35 10° N visible
11 Jul 6.0 21:43:38 10° SW 21:45:35 14° W 21:47:21 10° WNW visible
12 Jul 4.6 21:17:14 10° SSW 21:20:32 35° W 21:23:46 10° NW visible
13 Jul 2.9 20:51:55 10° SSE 20:55:27 79° E 20:59:00 10° N visible
14 Jul 4.1 20:27:19 10° SE 20:30:21 27° E 20:33:25 10° NNE visible
15 Jul 5.8 21:35:51 10° SW 21:38:24 18° W 21:40:49 10° WNW visible
